Regional Weather Roundup
Issued by NWS Green Bay, WI

Home | Current Version | Previous Version | Text Only | Print | Product List | Glossary On
Versions: 1 2 3 4 5 6 7 8 9 10 11 12 13 14 15 16 17 18 19 20 21 22 23 24 25 26 27 28 29 30 31 32 33 34 35 36 37 38 39 40 41 42 43 44 45 46 47 48 49 50
000
ASUS43 KGRB 281910
RWRGRB

NORTH-CENTRAL AND NORTHEAST WISCONSIN REGIONAL WEATHER ROUNDUP
NATIONAL WEATHER SERVICE GREEN BAY WI
100 PM CST WED JAN 28 2015

WIZ005-009-010>012-018-019-282000-
NORTH CENTRAL WISCONSIN

CITY           SKY/WX    TMP DP  RH WIND       PRES   REMARKS
IRONWOOD       CLOUDY    28  23  80 S7        29.90F
MANITOWISH WTR CLOUDY    26  21  82 SE8       29.95F
ARBOR VITAE    PTSUNNY   28  22  80 SE9G20    29.96F
EAGLE RIVER    PTSUNNY   28  19  71 S9G18     29.97F
LAND O LAKES   PTSUNNY   28  22  76 S9        29.97F
RHINELANDER    PTSUNNY   27  20  75 S10G16    29.98F
PHILLIPS       CLOUDY    26  22  83 SE9       29.94F
ANTIGO         PTSUNNY   26  20  80 SE15      30.02F
TOMAHAWK       PTSUNNY   28  20  73 CALM      29.97F
MERRILL        PTSUNNY   30  21  69 SE12      30.00F
$$

WIZ013-073-282000-
NORTHEAST WISCONSIN

CITY           SKY/WX    TMP DP  RH WIND       PRES   REMARKS
IRON MOUNTAIN  CLOUDY    28  19  69 S13       30.03F
MARINETTE      PTSUNNY   30  21  69 SW12      30.11F
OCONTO         PTSUNNY   31  22  72 S8        30.12F
$$

WIZ017-030-035>037-045-282000-
CENTRAL WISCONSIN

CITY           SKY/WX    TMP DP  RH WIND       PRES   REMARKS
MEDFORD        CLOUDY    24  21  87 SE9       29.97F
WAUSAU         PTSUNNY   27  20  75 S14       30.00F
MOSINEE        CLOUDY    27  23  86 SE12      30.02F
MARSHFIELD     CLOUDY    25  22  88 SE14      30.00F FOG
WISC RAPIDS    CLOUDY    26  21  81 S9        30.04F HAZE
STEVENS POINT  CLOUDY    26  20  79 SE10G17   30.04F
WAUPACA        PTSUNNY   33  22  63 S10       30.08F
SHAWANO        PTSUNNY   32  20  62 S9G17     30.09F
CLINTONVILLE   CLOUDY    30  21  69 S13       30.09F
$$

WIZ038-039-048-051-282000-
FOX VALLEY

CITY           SKY/WX    TMP DP  RH WIND       PRES   REMARKS
NWS GREEN BAY  PTSUNNY   31  23  72 S10       30.11F
APPLETON       CLOUDY    30  19  64 S12       30.11F
OSHKOSH        PTSUNNY   30  21  69 S14G22    30.10F
FOND DU LAC    PTSUNNY   30  20  66 S13       30.10F
$$

WIZ022-050-052-282000-
EAST CENTRAL WISCONSIN

CITY           SKY/WX    TMP DP  RH WIND       PRES   REMARKS
STURGEON BAY   CLOUDY    30  23  74 S14       30.14F
MANITOWOC      CLOUDY    31  27  85 S18G29    30.13F
SHEBOYGAN      PTSUNNY   31  23  72 S14       30.13F
$$

LMZ563-521-522-541>543-282000-
LAKESHORE

STATION/POSITION TIME  TEMP    WIND        PRES    VSBY  WAVE
                       AIR SEA DIR/SP/G                  HT/PER
                 (UTC) (F)     (DEG/KT/KT) (MB)    (MI)  (FT/S)
SHEBOYGAN LKSHOR 1900   30     190/ 22/ 25 1021.4F
KEWAUNEE LKSHORE 1900   30     190/ 11/ 15 1019.6F
NORTHPORT PIER   1900   30     160/  4/  8 1020.7F
SISTER BAY LKSHO 1900   33     210/ 17/ 20   N/A
CHAMBERS ISLAND  1900   31     180/  4/ 12 1020.7F
MENOMINEE LKSHOR 1900   29     150/  7     1020.6F
$$



USA.gov is the U.S. government's official web portal to all federal, state and local government web resources and services.